Location: Newark
(13.0328°N, 9.6142°E)
Time: 21:36:41
(UTC+00:00)

Envisat - Pass Details

Date: 23 October 2019
Orbit: 764 x 766 km, 98.1° (Epoch: 18 November)

Event Time Altitude Azimuth Distance (km) Brightness Sun altitude
Rises 18:49:05 0° 204° (SSW) 3,222 6.6 -27.4°
Reaches altitude 10° 18:52:23 10° 227° (SW) 2,297 6.1 -28.2°
Maximum altitude 18:55:12 15° 261° (W) 1,970 5.9 -28.9°
Drops below altitude 10° 18:58:01 10° 295° (WNW) 2,297 6.1 -29.6°
Sets 19:01:20 0° 318° (NW) 3,223 6.7 -30.4°
